This is the latest recevied weather packets stored in our database for station/object N3AVN. If no packets are shown the sender has not sent any weather packets the latest 10 day(s).
| Time | Temp. | Humidity | Pressure | Rain* | Wind** | Luminosity | Snow |
|---|---|---|---|---|---|---|---|
| 1778079214 | 19.44° C | 76% | 1007.2 hPa | 0 mm | - | 250 W/m² | - |
| 1778078912 | 19.44° C | 76% | 1007.5 hPa | 0 mm | - | 206 W/m² | - |
| 1778078608 | 19.44° C | 76% | 1007.5 hPa | 0 mm | - | 198 W/m² | - |
| 1778078307 | 18.89° C | 77% | 1007.6 hPa | 0 mm | - | 226 W/m² | - |
| 1778078003 | 18.89° C | 77% | 1007.8 hPa | 0 mm | - | 203 W/m² | - |
| 1778077702 | 18.89° C | 77% | 1007.6 hPa | 0 mm | - | 175 W/m² | - |
| 1778077399 | 18.89° C | 77% | 1007.6 hPa | 0 mm | - | 170 W/m² | - |
| 1778077097 | 18.89° C | 77% | 1007.8 hPa | 0 mm | - | 175 W/m² | - |
| 1778076795 | 18.89° C | 77% | 1007.9 hPa | 0 mm | - | 207 W/m² | - |
| 1778076493 | 18.89° C | 77% | 1007.7 hPa | 0 mm | - | 421 W/m² | - |
| 1778076189 | 18.89° C | 79% | 1008 hPa | 0 mm | - | 306 W/m² | - |
| 1778075886 | 18.33° C | 80% | 1007.9 hPa | 0 mm | - | 187 W/m² | - |
| 1778075582 | 17.78° C | 80% | 1007.7 hPa | 0 mm | - | 154 W/m² | - |
| 1778075279 | 17.78° C | 81% | 1007.8 hPa | 0 mm | - | 154 W/m² | - |
| 1778074976 | 17.78° C | 81% | 1007.5 hPa | 0 mm | - | 152 W/m² | - |
| 1778074673 | 17.78° C | 81% | 1007.5 hPa | 0 mm | - | 133 W/m² | - |
| 1778074370 | 17.78° C | 82% | 1007.7 hPa | 0 mm | - | 144 W/m² | - |
| 1778074066 | 17.22° C | 82% | 1007.5 hPa | 0 mm | - | 148 W/m² | - |
| 1778073764 | 17.22° C | 83% | 1007.5 hPa | 0 mm | - | 161 W/m² | - |
| 1778073462 | 17.22° C | 83% | 1007.6 hPa | 0 mm | - | 158 W/m² | - |
| 1778073157 | 16.67° C | 83% | 1007.8 hPa | 0 mm | - | 154 W/m² | - |
| 1778072854 | 16.67° C | 84% | 1008.1 hPa | 0 mm | - | 124 W/m² | - |
| 1778072551 | 16.11° C | 85% | 1007.9 hPa | 0 mm | - | 143 W/m² | - |
| 1778072249 | 16.11° C | 86% | 1008 hPa | 0 mm | - | 106 W/m² | - |
| 1778071947 | 16.11° C | 86% | 1007.8 hPa | 0 mm | - | 94 W/m² | - |
* Rain latest hour (hover to see other rain measurements)
** Current wind speed in m/s (hover to see current wind gust speed)